Location: Poughquag
(41.6090°N, 73.6820°W)
Time: 22:14:47
(UTC-04:00)

OTV 5 (USA 277) - Visible Passes

Search period start: 19 September 2018 00:00
Search period end: 29 September 2018 00:00
Orbit: 387 x 394 km, 54.5° (Epoch: 08 September)

Date Brightness Start Highest point End Pass type
(mag) Time Alt. Az. Time Alt. Az. Time Alt. Az.
24 Sep ? 05:59:16 10° SSE 06:00:44 13° SE 06:02:14 10° E visible
26 Sep ? 05:41:05 10° S 05:43:45 24° SE 05:46:25 10° ENE visible
27 Sep ? 04:46:46 10° SE 04:47:40 11° SE 04:48:33 10° ESE visible
28 Sep ? 05:25:17 25° SSW 05:26:51 49° SE 05:29:57 10° ENE visible
